CW3684 Weather Reports


Display with metric or nautical units.
time (UTC)temp
F
wind
direction
speed
MPH
gust
MPH
rain 1hr
in
rain 24hr
in
rain mn
in
humidity
%
barometer
mb
20260502210016 52 109 21.0 32.0 0.00 0.00 0.00 36 1010.7
20260502204514 52 88 29.0 43.0 0.00 0.00 0.00 36 1010.1
20260502203013 53 136 25.0 39.0 0.00 0.00 0.00 37 1010.6
20260502201515 52 140 23.0 41.0 0.00 0.00 0.00 39 1010.2
20260502200004 51 159 18.0 36.0 0.00 0.00 0.00 40 1009.8
20260502194500 50 130 26.0 38.0 0.00 0.00 0.00 42 1009.7
20260502193059 47 140 17.0 29.0 0.00 0.00 0.00 45 1009.8
20260502191600 48 138 20.0 35.0 0.00 0.00 0.00 42 1009.5
20260502190055 47 138 23.0 34.0 0.00 0.00 0.00 46 1009.2
20260502184553 48 106 20.0 34.0 0.00 0.00 0.00 45 1009.1
20260502183051 48 140 18.0 26.0 0.00 0.00 0.00 45 1008.9
20260502181606 48 140 19.0 31.0 0.00 0.00 0.00 47 1008.9
20260502163023 45 117 20.0 39.0 0.00 0.00 0.00 57 1007.4
20260502161517 44 135 23.0 36.0 0.00 0.00 0.00 57 1007.1
20260502151501 41 157 17.0 28.0 0.00 0.00 0.00 63 1006.5
20260502123031 37 147 20.0 30.0 0.00 0.00 0.00 74 1004.6
20260502121530 37 135 19.0 29.0 0.00 0.00 0.00 75 1004.3
20260502114522 36 150 11.0 20.0 0.00 0.00 0.00 77 1004.3
20260502113020 36 180 10.0 19.0 0.00 0.00 0.00 77 1004.1
20260502111518 36 126 11.0 20.0 0.00 0.00 0.00 78 1003.9
20260502110015 36 144 10.0 16.0 0.00 0.00 0.00 79 1003.7
20260502104512 36 155 9.0 18.0 0.00 0.00 0.00 78 1003.6
20260502103017 37 171 9.0 19.0 0.00 0.00 0.00 76 1003.3
20260502101507 37 225 8.0 15.0 0.00 0.00 0.00 75 1003.1
20260502071536 39 197 7.0 15.0 0.00 0.00 0.00 75 1000.6
20260502070037 39 173 9.0 20.0 0.00 0.00 0.00 76 1000.5
20260502064551 39 281 11.0 25.0 0.00 0.00 0.00 76 1000.1
20260502063037 39 127 13.0 26.0 0.00 0.00 0.00 74 1000.0
20260502061533 40 167 11.0 19.0 0.00 0.00 0.00 72 999.9
20260502060033 41 221 11.0 20.0 0.00 0.00 0.00 70 999.7
20260502054531 41 136 21.0 33.0 0.00 0.00 0.00 68 999.6
20260502053030 41 154 20.0 32.0 0.00 0.00 0.00 67 999.5
20260502051532 41 170 14.0 29.0 0.00 0.00 0.00 65 999.7
20260502050028 41 133 17.0 34.0 0.00 0.00 0.00 64 999.5
20260502044534 41 128 13.0 30.0 0.00 0.00 0.00 64 999.9
20260502043026 42 102 13.0 26.0 0.00 0.00 0.00 63 999.7
20260502041527 42 137 21.0 36.0 0.00 0.00 0.00 61 999.9
20260502040036 43 146 25.0 41.0 0.00 0.00 0.00 60 999.4
20260502034526 43 99 24.0 33.0 0.00 0.00 0.00 59 999.5
20260502033021 44 132 25.0 39.0 0.00 0.00 0.00 57 999.7
20260502031520 44 138 29.0 42.0 0.00 0.00 0.00 56 999.7
20260502030021 44 115 21.0 39.0 0.00 0.00 0.00 56 999.9
20260502024522 44 138 17.0 28.0 0.00 0.00 0.00 55 1000.3
20260502023016 44 150 19.0 31.0 0.00 0.00 0.00 54 1000.8
20260502021514 44 138 24.0 36.0 0.00 0.00 0.00 53 1001.2
20260502020013 44 121 22.0 43.0 0.00 0.00 0.00 52 1001.2
20260502014531 44 132 13.0 36.0 0.00 0.00 0.00 52 1001.5
20260502013009 44 113 12.0 31.0 0.00 0.00 0.00 50 1001.7
20260502011508 44 111 16.0 33.0 0.00 0.00 0.00 50 1002.1
20260502010006 45 91 8.0 14.0 0.00 0.00 0.00 50 1002.3
20260502004505 45 26 19.0 35.0 0.00 0.00 0.00 47 1002.5
20260502003005 46 165 21.0 34.0 0.00 0.00 0.00 45 1002.9
20260502001505 47 97 26.0 42.0 0.00 0.00 0.00 43 1002.5
20260502000003 48 114 24.0 41.0 0.00 0.00 0.00 41 1002.8
20260501234503 49 139 24.0 38.0 0.00 0.00 0.00 39 1003.2
20260501233100 49 113 20.0 38.0 0.00 0.00 0.00 39 1003.2
20260501231556 48 126 16.0 33.0 0.00 0.00 0.00 42 1003.9
20260501230053 46 130 19.0 35.0 0.00 0.00 0.00 42 1004.2
20260501224559 46 126 26.0 41.0 0.00 0.00 0.00 41 1003.8
20260501223047 45 122 22.0 36.0 0.00 0.00 0.00 41 1004.6
20260501221546 45 113 21.0 39.0 0.00 0.00 0.00 41 1005.1
20260501220049 44 138 21.0 31.0 0.00 0.00 0.00 42 1005.0
20260501214543 44 130 23.0 35.0 0.00 0.00 0.00 41 1005.2
20260501213048 44 94 21.0 34.0 0.00 0.00 0.00 42 1005.2
20260501211542 44 140 28.0 40.0 0.00 0.00 0.00 41 1005.5